QPF
0.00 0.00 0.00 0.00 0.00 0.00 0.00 0.00 0.00 0.00 0.00 0.00 0.00 0.00 0.00 0.00 0.00 0.03 0.02 0.00 0.00 0.00 0.00 0.00 0.00 0.00 0.00 0.00 0.00 0.00 0.00 0.00 0.00 0.00 0.00 0.00 0.00 0.00 0.00 0.00 0.00 0.00 0.00 0.00 0.00 0.00 0.00 0.00 0.00
0.00 0.00 0.00 0.00 0.00 0.00 0.00 0.00 0.00 0.00 0.00 0.00 0.00 0.00 0.00 0.00 0.00 0.00 0.00 0.00 0.00 0.00 0.00 0.00 0.00 0.00 0.00 0.00 0.00 0.00 0.00 0.00 0.00 0.00 0.00 0.00 0.00 0.00 0.00 0.00 0.00 0.00 0.00 0.00 0.00 0.00 0.00 0.00 0.00
0.00 0.00 0.00 0.00 0.00 0.00 0.00 0.00 0.00 0.00 0.00 0.00 0.00 0.00 0.00 0.00 0.00 0.00 0.00 0.00 0.00 0.00 0.00 0.00 0.00 0.00 0.00 0.00 0.00 0.00 0.00 0.00 0.00 0.00 0.00 0.00 0.00 0.00 0.00 0.00 0.00 0.00 0.00 0.00 0.00 0.00 0.00 0.00 0.00
0.00 0.00 0.00 0.00 0.00 0.00 0.00 0.00 0.00 0.00 0.00 0.00 0.00 0.01 0.02 0.00 0.00 0.00 0.00 0.00 0.00 0.00 0.00 0.00 0.00 0.00 0.00 0.00 0.00 0.00 0.00 0.00 0.00 0.00 0.00 0.00 0.00 0.00 0.00 0.00 0.00 0.00 0.00 0.00 0.00 0.00 0.00 0.00 0.00
0.00 0.00 0.00 0.00 0.00 0.00 0.00 0.00 0.00 0.00 0.00 0.00 0.00 0.01 0.01 0.00 0.00 0.00 0.00 0.00 0.00 0.00 0.00 0.00 0.00 0.00 0.00 0.00 0.00 0.00 0.00 0.00 0.00 0.00 0.00 0.00 0.00 0.00 0.00 0.00 0.00 0.00 0.00 0.00 0.00 0.00 0.00 0.00 0.00
0.00 0.00 0.00 0.00 0.00 0.00 0.00 0.00 0.00 0.00 0.00 0.00 0.00 0.00 0.00 0.00 0.00 0.00 0.00 0.00 0.00 0.00 0.00 0.00 0.00 0.00 0.00 0.00 0.00 0.00 0.00 0.00 0.00 0.00 0.00 0.00 0.00 0.00 0.00 0.00 0.00 0.00 0.00 0.00 0.00 0.00 0.00 0.00 0.00
0.00 0.00 0.00 0.00 0.00 0.00 0.00 0.00 0.00 0.00 0.00 0.00 0.00 0.00 0.00 0.00 0.00 0.00 0.00 0.00 0.00 0.00 0.00 0.00 0.00 0.00 0.00 0.00 0.00 0.00 0.00 0.00 0.00 0.00 0.00 0.00 0.00 0.00 0.00 0.00 0.00 0.00 0.00 0.00 0.00 0.00 0.00 0.00 0.00
0.00 0.00 0.00 0.00 0.00 0.00 0.00 0.00 0.00 0.00 0.00 0.00 0.00 0.00 0.00 0.00 0.00 0.00 0.00 0.00 0.00 0.00 0.00 0.00 0.00 0.00 0.00 0.00 0.00 0.00 0.00 0.00 0.00 0.00 0.00 0.00 0.00 0.00 0.00 0.00 0.00 0.00 0.00 0.00 0.00 0.00 0.00 0.00 0.00
0.00 0.00 0.00 0.00 0.00 0.00 0.00 0.00 0.00 0.00 0.00 0.00 0.00 0.00 0.00 0.00 0.00 0.00 0.00 0.00 0.00 0.00 0.00 0.00 0.00 0.00 0.00 0.00 0.00 0.00 0.00 0.00 0.00 0.00 0.00 0.00 0.00 0.00 0.00 0.00 0.00 0.00 0.00 0.00 0.00 0.00 0.00 0.00 0.00
0.00 0.00 0.00 0.00 0.00 0.00 0.00 0.00 0.00 0.00 0.00 0.00 0.00 0.00 0.00 0.00 0.00 0.00 0.00 0.00 0.00 0.00 0.00 0.00 0.00 0.00 0.00 0.00 0.00 0.00 0.00 0.00 0.00 0.00 0.00 0.00 0.00 0.00 0.00 0.00 0.00 0.00 0.00 0.00 0.00 0.00 0.00 0.00 0.00
0.00 0.00 0.00 0.00 0.00 0.00 0.00 0.00 0.00 0.00 0.00 0.00 0.00 0.00 0.00 0.00 0.00 0.00 0.00 0.00 0.00 0.00 0.00 0.00 0.00 0.00 0.00 0.00 0.00 0.00 0.00 0.00 0.00 0.00 0.00 0.00 0.00 0.00 0.01 0.01 0.00 0.00 0.00 0.00 0.00 0.00 0.00 0.00 0.00
0.00 0.00 0.00 0.00 0.00 0.00 0.00 0.00 0.00 0.00 0.00 0.00 0.00 0.00 0.00 0.00 0.00 0.00 0.00 0.00 0.00 0.00 0.00 0.00 0.00 0.00 0.00 0.00 0.00 0.00 0.00 0.00 0.00 0.00 0.00 0.00 0.00 0.00 0.00 0.01 0.00 0.00 0.00 0.00 0.00 0.00 0.00 0.00 0.00
0.00 0.00 0.00 0.00 0.00 0.00 0.00 0.00 0.00 0.00 0.00 0.00 0.00 0.00 0.00 0.00 0.00 0.00 0.00 0.00 0.00 0.00 0.00 0.00 0.00 0.00 0.00 0.00 0.00 0.00 0.00 0.00 0.00 0.00 0.00 0.00 0.00 0.01 0.00 0.01 0.00 0.00 0.00 0.00 0.00 0.00 0.00 0.00 0.00
0.00 0.00 0.00 0.00 0.00 0.00 0.00 0.00 0.00 0.00 0.00 0.00 0.00 0.00 0.00 0.00 0.00 0.00 0.00 0.00 0.00 0.00 0.00 0.00 0.00 0.00 0.00 0.00 0.00 0.00 0.00 0.00 0.00 0.00 0.00 0.00 0.01 0.01 0.00 0.01 0.01 0.00 0.00 0.00 0.00 0.00 0.00 0.00 0.00
0.00 0.00 0.00 0.00 0.00 0.00 0.00 0.00 0.00 0.00 0.00 0.00 0.00 0.00 0.00 0.00 0.00 0.00 0.00 0.00 0.00 0.00 0.00 0.00 0.00 0.00 0.00 0.00 0.00 0.00 0.00 0.00 0.00 0.00 0.00 0.00 0.01 0.01 0.01 0.01 0.00 0.00 0.00 0.00 0.00 0.00 0.00 0.00 0.00
0.00 0.00 0.00 0.00 0.00 0.00 0.00 0.00 0.00 0.00 0.00 0.00 0.00 0.00 0.00 0.00 0.00 0.00 0.00 0.00 0.00 0.00 0.00 0.00 0.00 0.00 0.00 0.00 0.01 0.01 0.00 0.00 0.00 0.00 0.01 0.01 0.01 0.01 0.04 0.03 0.01 0.00 0.00 0.00 0.00 0.00 0.00 0.00 0.00
0.00 0.00 0.00 0.00 0.00 0.00 0.00 0.00 0.00 0.00 0.00 0.00 0.00 0.00 0.00 0.00 0.00 0.00 0.00 0.00 0.00 0.00 0.00 0.00 0.00 0.00 0.00 0.00 0.00 0.00 0.01 0.01 0.00 0.00 0.01 0.01 0.02 0.03 0.02 0.08 0.05 0.05 0.01 0.00 0.00 0.00 0.00 0.00 0.00
0.00 0.00 0.00 0.00 0.00 0.00 0.00 0.00 0.00 0.00 0.00 0.00 0.00 0.00 0.00 0.00 0.00 0.00 0.00 0.00 0.00 0.00 0.00 0.00 0.00 0.00 0.00 0.01 0.01 0.01 0.02 0.02 0.01 0.00 0.00 0.01 0.01 0.03 0.03 0.01 0.03 0.06 0.04 0.01 0.01 0.00 0.00 0.00 0.00
0.00 0.00 0.00 0.00 0.00 0.00 0.00 0.00 0.00 0.00 0.00 0.00 0.00 0.00 0.00 0.00 0.00 0.00 0.00 0.00 0.00 0.00 0.00 0.00 0.00 0.00 0.00 0.00 0.00 0.00 0.00 0.00 0.00 0.01 0.01 0.01 0.02 0.02 0.02 0.01 0.01 0.03 0.05 0.03 0.04 0.02 0.00 0.00 0.00
0.00 0.00 0.00 0.00 0.00 0.00 0.00 0.00 0.00 0.00 0.00 0.00 0.00 0.00 0.00 0.00 0.00 0.00 0.00 0.00 0.00 0.00 0.00 0.00 0.00 0.00 0.00 0.00 0.00 0.00 0.00 0.00 0.00 0.00 0.00 0.02 0.03 0.02 0.02 0.01 0.02 0.01 0.03 0.05 0.06 0.03 0.01 0.01 0.01
0.00 0.00 0.00 0.00 0.00 0.00 0.00 0.00 0.00 0.00 0.00 0.00 0.00 0.00 0.00 0.00 0.00 0.00 0.00 0.00 0.00 0.00 0.00 0.00 0.00 0.00 0.00 0.00 0.00 0.00 0.00 0.00 0.00 0.00 0.00 0.00 0.00 0.01 0.01 0.01 0.01 0.01 0.01 0.02 0.02 0.06 0.06 0.04 0.02
0.00 0.00 0.00 0.00 0.00 0.00 0.00 0.00 0.00 0.00 0.00 0.00 0.00 0.00 0.00 0.00 0.00 0.00 0.00 0.00 0.00 0.00 0.00 0.00 0.00 0.00 0.00 0.00 0.00 0.00 0.00 0.00 0.00 0.00 0.00 0.00 0.00 0.00 0.00 0.02 0.04 0.04 0.03 0.03 0.05 0.05 0.04 0.06 0.07
0.00 0.00 0.00 0.00 0.00 0.00 0.00 0.00 0.00 0.00 0.00 0.00 0.00 0.00 0.00 0.00 0.00 0.00 0.00 0.00 0.00 0.00 0.00 0.00 0.00 0.00 0.00 0.00 0.00 0.00 0.00 0.00 0.00 0.00 0.00 0.00 0.00 0.00 0.00 0.00 0.00 0.02 0.04 0.06 0.09 0.10 0.10 0.06 0.06
0.00 0.00 0.00 0.00 0.00 0.00 0.00 0.00 0.00 0.00 0.00 0.00 0.00 0.00 0.00 0.00 0.00 0.00 0.00 0.00 0.00 0.00 0.00 0.00 0.00 0.00 0.00 0.00 0.00 0.00 0.00 0.00 0.00 0.00 0.00 0.00 0.00 0.00 0.00 0.00 0.00 0.00 0.01 0.02 0.05 0.09 0.10 0.08 0.06
0.00 0.00 0.00 0.00 0.00 0.00 0.00 0.00 0.00 0.00 0.00 0.00 0.00 0.00 0.00 0.00 0.00 0.00 0.00 0.00 0.00 0.00 0.00 0.00 0.00 0.00 0.00 0.00 0.00 0.00 0.00 0.00 0.00 0.00 0.00 0.00 0.00 0.00 0.00 0.00 0.00 0.00 0.00 0.00 0.00 0.03 0.07 0.10 0.16
0.00 0.00 0.00 0.00 0.00 0.00 0.00 0.00 0.00 0.00 0.00 0.00 0.00 0.00 0.00 0.00 0.00 0.00 0.00 0.00 0.00 0.00 0.00 0.00 0.00 0.00 0.00 0.00 0.00 0.00 0.00 0.00 0.00 0.00 0.00 0.00 0.00 0.00 0.00 0.00 0.00 0.00 0.00 0.00 0.00 0.00 0.01 0.04 0.05
0.00 0.00 0.00 0.00 0.00 0.00 0.00 0.00 0.00 0.00 0.00 0.00 0.00 0.00 0.00 0.00 0.00 0.00 0.00 0.00 0.00 0.00 0.00 0.00 0.00 0.00 0.00 0.00 0.00 0.00 0.00 0.00 0.00 0.00 0.00 0.00 0.00 0.01 0.01 0.01 0.01 0.00 0.00 0.00 0.00 0.00 0.00 0.00 0.01
0.00 0.00 0.00 0.00 0.00 0.00 0.00 0.00 0.00 0.00 0.00 0.00 0.00 0.00 0.00 0.00 0.00 0.00 0.00 0.00 0.00 0.00 0.00 0.00 0.00 0.00 0.00 0.00 0.00 0.00 0.00 0.00 0.00 0.00 0.01 0.02 0.03 0.04 0.04 0.02 0.02 0.01 0.01 0.01 0.00 0.00 0.00 0.00 0.00
0.00 0.00 0.00 0.00 0.00 0.00 0.00 0.00 0.00 0.00 0.00 0.00 0.00 0.00 0.00 0.00 0.00 0.00 0.00 0.00 0.00 0.00 0.00 0.00 0.00 0.00 0.00 0.00 0.00 0.00 0.00 0.00 0.00 0.03 0.04 0.06 0.07 0.08 0.17 0.17 0.11 0.04 0.04 0.03 0.01 0.00 0.00 0.00 0.00
0.00 0.00 0.00 0.00 0.00 0.00 0.00 0.00 0.00 0.00 0.00 0.00 0.00 0.00 0.00 0.00 0.00 0.00 0.00 0.00 0.00 0.00 0.00 0.00 0.00 0.00 0.00 0.00 0.00 0.00 0.00 0.00 0.00 0.02 0.04 0.10 0.18 0.23 0.24 0.15 0.11 0.06 0.05 0.06 0.03 0.01 0.00 0.00 0.00
MSLP
1009.09 1008.33 1007.85 1007.04 1005.99 1003.74 1001.55 1000.50 1000.54 1001.08 1001.66 1002.32 1002.10 1002.22 1002.65 1003.32 1003.99 1006.01 1006.92 1006.98 1007.19 1008.24 1009.56 1010.25 1011.02 1011.54 1011.85 1012.24 1012.65 1012.85 1013.17 1013.68 1014.13 1014.33 1014.51 1015.02 1015.35 1015.59 1015.81 1016.12 1016.25 1016.37 1016.51 1016.78 1016.95 1017.02 1017.18 1017.36 1017.51
1008.34 1007.28 1006.48 1005.59 1004.30 1002.12 1000.50 1000.41 1000.75 1001.63 1002.43 1002.25 1002.08 1002.20 1003.10 1004.06 1004.90 1006.09 1006.63 1007.35 1007.41 1008.46 1009.64 1010.53 1011.22 1011.68 1012.06 1012.48 1012.79 1013.12 1013.53 1013.87 1014.36 1014.70 1014.89 1015.15 1015.49 1015.86 1016.06 1016.36 1016.61 1016.77 1016.90 1017.05 1017.18 1017.35 1017.58 1017.86 1017.95
1008.75 1007.13 1005.96 1004.34 1002.84 1001.47 1000.44 1000.61 1001.14 1001.92 1002.28 1002.15 1001.80 1002.10 1003.77 1005.04 1005.92 1006.55 1007.41 1007.71 1007.60 1008.42 1009.61 1010.81 1011.19 1011.78 1012.17 1012.45 1012.89 1013.40 1013.76 1014.15 1014.56 1014.83 1015.10 1015.39 1015.64 1015.99 1016.13 1016.42 1016.72 1016.88 1017.08 1017.29 1017.36 1017.47 1017.69 1018.10 1018.30
1007.23 1006.00 1005.31 1003.65 1001.66 1001.06 1001.11 1001.51 1002.19 1002.23 1002.49 1002.64 1002.39 1003.78 1005.36 1005.67 1006.23 1006.99 1007.36 1007.54 1007.72 1008.27 1009.16 1010.55 1011.29 1011.61 1011.82 1012.19 1012.62 1013.20 1013.73 1014.15 1014.52 1014.85 1015.11 1015.45 1015.65 1016.01 1016.31 1016.50 1016.83 1017.10 1017.21 1017.35 1017.58 1017.80 1017.92 1018.19 1018.47
1006.41 1005.18 1003.93 1002.59 1001.22 1001.11 1001.69 1002.33 1002.86 1002.45 1003.06 1003.18 1002.88 1004.52 1005.28 1005.91 1006.41 1006.81 1007.17 1007.44 1007.79 1008.34 1009.60 1010.56 1011.19 1011.35 1011.75 1012.30 1012.62 1012.99 1013.49 1013.86 1014.22 1014.61 1014.92 1015.28 1015.56 1015.92 1016.29 1016.48 1016.77 1017.13 1017.29 1017.55 1017.68 1017.95 1018.19 1018.49 1018.61
1005.67 1004.44 1003.33 1001.75 1000.86 1001.41 1002.34 1003.02 1003.13 1002.99 1003.40 1003.69 1003.51 1003.86 1005.18 1005.91 1006.30 1006.71 1007.12 1007.58 1007.99 1008.82 1009.75 1010.66 1011.19 1011.51 1011.84 1012.30 1012.79 1013.20 1013.62 1014.00 1014.40 1014.67 1014.97 1015.22 1015.58 1015.83 1016.02 1016.35 1016.65 1016.90 1017.17 1017.42 1017.68 1018.03 1018.34 1018.60 1018.87
1005.31 1004.06 1002.93 1001.77 1001.21 1001.68 1002.20 1003.17 1003.41 1003.36 1003.25 1003.72 1004.07 1004.04 1005.00 1005.63 1006.16 1006.69 1007.25 1007.70 1008.10 1008.69 1009.48 1010.62 1011.22 1011.66 1012.07 1012.47 1012.83 1013.13 1013.57 1013.98 1014.42 1014.80 1015.12 1015.39 1015.66 1015.97 1016.05 1016.19 1016.45 1016.79 1017.05 1017.55 1017.87 1018.03 1018.31 1018.53 1018.93
1004.94 1004.32 1003.22 1001.96 1001.61 1001.48 1002.31 1003.29 1003.85 1003.96 1003.49 1003.81 1004.16 1003.60 1004.37 1005.23 1005.91 1006.55 1007.36 1007.98 1008.48 1009.02 1009.70 1010.50 1010.99 1011.52 1012.01 1012.57 1013.05 1013.45 1013.85 1014.26 1014.57 1014.88 1015.15 1015.48 1015.86 1016.18 1016.36 1016.49 1016.62 1016.72 1017.03 1017.49 1017.87 1018.03 1018.30 1018.55 1018.77
1005.01 1004.63 1003.12 1001.74 1001.23 1001.84 1002.78 1003.28 1003.63 1003.99 1003.97 1003.78 1003.73 1003.88 1004.16 1004.88 1005.68 1006.19 1007.05 1007.83 1008.49 1009.07 1009.75 1010.58 1011.10 1011.40 1011.73 1012.27 1012.93 1013.54 1013.97 1014.41 1014.79 1015.11 1015.38 1015.58 1015.64 1015.95 1016.39 1016.65 1016.80 1016.97 1017.24 1017.50 1017.79 1018.05 1018.35 1018.62 1018.85
1004.82 1004.11 1002.72 1001.71 1001.96 1001.94 1002.52 1003.34 1003.68 1003.84 1003.67 1003.60 1003.58 1003.83 1004.25 1004.78 1005.36 1005.69 1005.97 1006.65 1007.56 1008.36 1009.23 1010.26 1011.04 1011.48 1011.48 1011.36 1012.07 1012.81 1013.24 1013.68 1014.09 1014.42 1014.85 1015.33 1015.45 1015.53 1015.72 1016.04 1016.51 1016.90 1017.24 1017.50 1017.68 1018.00 1018.39 1018.71 1018.72
1004.22 1003.81 1002.95 1002.29 1002.47 1002.78 1003.04 1003.18 1003.34 1003.49 1003.46 1003.34 1003.42 1003.57 1004.21 1004.95 1005.44 1005.66 1005.76 1005.73 1006.45 1007.62 1008.57 1009.41 1010.55 1011.27 1011.81 1011.44 1011.70 1012.41 1012.75 1013.31 1013.64 1013.91 1014.25 1014.74 1014.78 1014.88 1015.28 1016.06 1016.41 1016.74 1017.06 1017.43 1017.61 1017.81 1018.01 1018.36 1018.03
1003.81 1003.56 1003.42 1003.04 1002.83 1003.08 1003.23 1003.45 1003.36 1003.29 1003.19 1003.16 1003.69 1004.30 1004.89 1005.41 1005.82 1006.42 1006.62 1006.55 1006.70 1007.37 1008.13 1008.82 1009.78 1010.77 1011.52 1011.60 1011.44 1011.83 1012.19 1012.67 1013.05 1013.43 1013.79 1014.16 1014.60 1014.52 1014.79 1015.63 1016.19 1016.45 1016.66 1016.62 1016.86 1017.31 1017.58 1017.44 1017.39
1003.68 1003.43 1003.29 1003.15 1003.23 1003.23 1003.51 1003.48 1003.64 1003.50 1003.34 1003.56 1004.10 1005.20 1005.74 1006.33 1006.87 1007.44 1007.54 1007.51 1007.46 1007.57 1008.09 1008.20 1009.11 1010.06 1011.04 1011.65 1011.41 1011.38 1011.72 1011.80 1012.35 1012.78 1013.20 1013.52 1013.99 1014.31 1014.62 1014.92 1015.41 1015.75 1015.85 1016.17 1016.15 1015.89 1016.52 1016.71 1016.76
1003.86 1003.46 1003.17 1003.27 1003.21 1003.09 1003.43 1003.42 1003.50 1003.35 1003.37 1003.89 1004.73 1005.62 1006.40 1007.08 1007.64 1008.12 1008.14 1008.24 1008.15 1008.20 1008.19 1008.55 1008.72 1009.77 1010.54 1011.34 1011.74 1011.72 1011.34 1011.54 1011.72 1012.09 1012.48 1012.98 1013.31 1013.82 1014.31 1014.69 1015.00 1015.20 1015.27 1015.24 1015.23 1015.24 1015.51 1015.95 1016.28
1004.45 1004.02 1003.70 1003.56 1003.41 1003.18 1003.30 1003.11 1002.79 1002.70 1002.95 1003.95 1005.02 1005.90 1006.79 1007.33 1007.93 1008.52 1008.51 1008.65 1008.82 1008.63 1008.64 1008.76 1008.59 1009.35 1010.47 1011.23 1011.67 1011.84 1011.90 1011.82 1011.86 1011.82 1012.13 1012.73 1013.19 1013.70 1013.93 1014.32 1014.56 1014.71 1014.79 1014.72 1014.58 1014.62 1014.88 1015.39 1015.66
1004.85 1004.39 1003.74 1002.93 1002.48 1002.40 1003.11 1002.38 1001.75 1001.04 1002.55 1003.65 1004.34 1005.46 1006.72 1007.81 1008.50 1009.03 1009.14 1009.25 1009.43 1009.47 1009.45 1009.52 1009.81 1010.12 1010.81 1011.30 1011.95 1012.26 1012.35 1012.46 1012.44 1012.29 1012.26 1012.52 1012.85 1013.32 1013.59 1014.09 1014.14 1014.08 1014.22 1014.15 1014.13 1014.38 1014.66 1014.90 1015.18
1004.48 1003.74 1002.98 1001.90 1001.35 1001.89 1002.63 1002.39 1001.80 1001.78 1002.45 1003.37 1003.79 1004.83 1006.15 1007.85 1008.96 1009.52 1009.64 1009.96 1010.08 1010.03 1009.90 1009.97 1010.23 1010.64 1011.13 1011.47 1011.91 1012.34 1012.51 1012.65 1012.71 1012.70 1012.76 1012.84 1013.06 1013.09 1013.28 1013.65 1013.74 1013.80 1013.78 1013.80 1013.99 1014.07 1014.27 1014.66 1015.00
1003.70 1002.90 1002.25 1001.66 1001.55 1002.21 1002.41 1002.43 1002.17 1002.03 1002.55 1002.99 1003.39 1004.35 1006.00 1007.58 1008.99 1009.84 1010.14 1010.45 1010.67 1010.76 1010.69 1010.82 1010.92 1010.99 1011.08 1011.40 1011.81 1012.12 1012.51 1012.71 1012.63 1012.69 1012.83 1012.88 1013.05 1013.19 1013.24 1013.24 1013.23 1013.29 1013.64 1013.56 1013.45 1013.78 1013.93 1014.30 1014.54
1003.43 1002.52 1001.90 1001.47 1001.09 1002.05 1002.08 1002.06 1001.97 1001.91 1001.99 1002.24 1003.00 1004.40 1006.01 1007.62 1009.15 1010.15 1010.69 1010.89 1011.22 1011.30 1011.45 1011.59 1011.77 1011.73 1011.62 1011.58 1011.88 1011.95 1012.18 1012.27 1012.49 1012.63 1012.52 1012.67 1012.90 1012.95 1013.12 1013.22 1013.13 1013.25 1013.37 1013.24 1013.33 1013.52 1013.71 1014.10 1014.36
1003.20 1002.83 1002.37 1002.11 1001.76 1001.69 1001.78 1001.64 1001.65 1001.71 1001.64 1002.03 1002.76 1004.24 1006.00 1007.73 1009.21 1010.37 1011.15 1011.51 1011.75 1011.99 1012.02 1012.08 1012.16 1012.32 1012.49 1012.54 1012.42 1012.32 1012.41 1012.27 1012.44 1012.19 1012.25 1012.36 1012.44 1012.69 1012.96 1013.04 1013.07 1013.00 1013.03 1013.14 1013.11 1013.14 1013.32 1013.41 1013.87
1002.65 1002.29 1002.39 1002.55 1002.39 1002.15 1002.11 1001.81 1001.61 1001.28 1001.51 1002.40 1003.31 1004.78 1006.51 1007.98 1009.36 1010.58 1011.32 1011.84 1012.11 1012.38 1012.51 1012.49 1012.50 1012.55 1012.84 1013.12 1012.84 1012.83 1012.66 1012.35 1012.23 1012.15 1012.26 1012.10 1012.17 1012.28 1012.18 1012.29 1012.47 1012.65 1012.68 1012.61 1012.62 1012.51 1012.91 1013.09 1013.00
1002.23 1002.56 1002.98 1003.14 1003.31 1002.90 1002.73 1001.71 1000.43 1000.89 1001.86 1002.92 1004.12 1005.53 1006.95 1008.17 1009.43 1010.49 1011.16 1011.67 1012.15 1012.70 1012.88 1012.95 1012.91 1012.81 1012.85 1012.90 1013.07 1013.18 1012.96 1012.81 1012.55 1012.40 1012.01 1011.90 1011.70 1011.68 1011.78 1011.97 1012.12 1012.04 1011.89 1011.74 1011.79 1011.75 1012.00 1012.15 1012.46
1002.32 1002.78 1003.00 1003.35 1003.39 1003.48 1003.17 1002.35 1001.12 1001.14 1002.63 1003.74 1005.04 1006.28 1007.60 1008.79 1009.78 1010.49 1011.00 1011.47 1012.04 1012.79 1013.04 1013.14 1013.04 1012.93 1012.90 1012.97 1013.11 1013.19 1013.08 1012.95 1012.65 1012.37 1012.14 1011.83 1011.64 1011.46 1011.27 1011.15 1011.49 1011.50 1011.59 1011.69 1011.65 1011.00 1010.91 1010.63 1011.63
1002.71 1003.33 1003.69 1004.29 1004.48 1003.67 1003.13 1002.58 1000.90 1000.09 1001.54 1003.82 1005.49 1006.78 1008.11 1009.26 1009.98 1010.26 1010.76 1011.26 1012.06 1012.67 1013.09 1013.32 1013.30 1013.16 1013.02 1012.97 1012.86 1012.94 1012.96 1012.91 1012.83 1012.62 1012.35 1012.00 1011.48 1011.41 1011.25 1011.08 1011.36 1011.33 1011.23 1011.29 1011.31 1011.20 1010.89 1010.43 1010.45
1003.00 1003.87 1004.16 1004.23 1003.89 1002.81 1002.45 1001.80 1000.86 1000.66 1000.43 1003.20 1005.48 1007.13 1008.48 1009.53 1010.01 1010.38 1010.71 1011.31 1011.91 1012.38 1012.79 1013.06 1013.21 1013.21 1013.10 1013.07 1012.95 1012.74 1012.65 1012.53 1012.44 1012.33 1011.95 1011.64 1011.32 1011.21 1011.05 1011.13 1011.32 1011.32 1011.16 1011.25 1011.13 1011.15 1010.85 1010.73 1010.79
1002.37 1003.23 1003.33 1003.23 1002.88 1002.51 1002.14 1001.26 1001.89 1002.24 1002.88 1004.22 1005.90 1007.58 1008.77 1009.51 1010.20 1010.63 1011.25 1011.87 1012.30 1012.60 1012.88 1013.13 1013.22 1013.27 1013.26 1012.99 1012.78 1012.64 1012.43 1012.32 1012.06 1011.86 1011.59 1011.30 1011.13 1011.05 1011.02 1011.13 1010.91 1011.06 1010.94 1010.88 1010.92 1010.82 1010.71 1010.84 1010.87
1002.00 1002.62 1003.19 1003.52 1003.60 1003.47 1003.01 1003.09 1003.53 1003.82 1004.40 1005.29 1006.64 1007.94 1008.89 1009.86 1010.67 1011.14 1011.58 1012.02 1012.39 1012.70 1012.87 1013.03 1013.15 1013.21 1013.21 1013.05 1012.64 1012.43 1012.30 1012.11 1011.87 1011.59 1011.38 1011.10 1010.84 1010.92 1010.70 1010.45 1010.37 1010.22 1010.29 1010.18 1010.31 1010.46 1010.59 1010.62 1010.79
1001.75 1002.44 1003.35 1003.87 1003.99 1003.74 1002.70 1002.20 1001.95 1003.78 1005.04 1006.10 1007.16 1008.20 1009.33 1010.15 1010.78 1011.30 1011.66 1012.00 1012.36 1012.64 1012.87 1013.07 1013.13 1013.07 1013.00 1012.68 1012.35 1012.16 1012.06 1011.93 1011.61 1011.30 1011.14 1010.89 1010.79 1010.75 1010.44 1009.82 1009.50 1009.44 1009.64 1009.60 1009.56 1009.90 1010.05 1010.19 1010.44
1002.01 1002.18 1002.60 1003.31 1003.76 1003.41 1002.90 1002.50 1002.10 1003.33 1005.11 1006.45 1007.65 1008.76 1009.57 1010.27 1011.01 1011.53 1011.86 1012.19 1012.44 1012.59 1012.85 1013.06 1013.09 1012.87 1012.79 1012.64 1012.23 1012.16 1012.02 1011.78 1011.62 1011.44 1011.46 1011.45 1011.45 1011.78 1010.94 1010.54 1009.52 1008.72 1008.81 1008.87 1009.05 1009.60 1009.71 1009.93 1010.06
1001.51 1001.96 1002.64 1002.96 1003.44 1003.62 1003.86 1003.63 1003.71 1004.63 1005.85 1007.00 1008.07 1008.91 1009.77 1010.57 1011.16 1011.56 1011.91 1012.27 1012.52 1012.72 1012.89 1012.99 1013.02 1012.68 1012.47 1012.31 1012.04 1011.91 1011.75 1011.44 1011.23 1010.99 1010.70 1010.72 1010.53 1010.40 1011.10 1011.07 1009.92 1008.96 1008.07 1008.55 1008.44 1008.94 1009.24 1009.65 1009.55
Thickness
5788 5795 5800 5794 5765 5781 5785 5801 5814 5796 5795 5809 5816 5807 5798 5799 5784 5756 5801 5809 5807 5798 5787 5781 5774 5768 5764 5759 5754 5752 5749 5743 5739 5736 5735 5730 5728 5725 5722 5718 5716 5714 5713 5710 5708 5708 5708 5706 5706
5791 5799 5800 5788 5764 5768 5797 5808 5799 5798 5804 5814 5816 5813 5793 5775 5800 5795 5796 5802 5803 5795 5784 5776 5770 5765 5760 5755 5751 5748 5744 5741 5736 5733 5730 5727 5724 5721 5719 5716 5712 5710 5709 5707 5706 5704 5702 5701 5700
5785 5798 5779 5777 5777 5772 5787 5807 5798 5804 5811 5809 5810 5816 5794 5779 5791 5791 5796 5797 5799 5793 5781 5772 5768 5762 5758 5754 5749 5744 5741 5738 5734 5731 5728 5724 5723 5718 5717 5714 5710 5708 5706 5703 5703 5702 5700 5697 5696
5787 5790 5786 5767 5776 5797 5794 5791 5798 5798 5805 5810 5811 5776 5787 5798 5791 5793 5797 5797 5794 5791 5783 5773 5766 5763 5761 5756 5750 5744 5739 5735 5733 5729 5727 5724 5722 5718 5714 5712 5708 5705 5703 5702 5699 5697 5697 5695 5694
5788 5783 5764 5771 5786 5792 5797 5793 5796 5791 5791 5794 5804 5764 5775 5793 5799 5798 5795 5796 5791 5788 5778 5771 5765 5765 5761 5755 5751 5747 5741 5737 5733 5730 5728 5724 5722 5719 5714 5712 5708 5703 5701 5699 5697 5695 5694 5691 5690
5766 5781 5758 5766 5788 5789 5789 5791 5790 5788 5789 5790 5790 5780 5772 5796 5794 5794 5795 5791 5790 5781 5774 5767 5763 5760 5757 5752 5747 5743 5739 5734 5730 5728 5725 5723 5720 5717 5716 5712 5708 5705 5701 5699 5696 5693 5690 5689 5687
5758 5763 5760 5775 5781 5775 5779 5792 5780 5782 5784 5782 5794 5773 5771 5787 5794 5794 5790 5788 5786 5782 5775 5765 5759 5755 5751 5748 5744 5741 5737 5733 5728 5725 5722 5719 5717 5714 5713 5711 5707 5704 5701 5696 5693 5691 5689 5686 5684
5768 5764 5756 5774 5769 5772 5779 5781 5782 5777 5776 5798 5795 5774 5765 5786 5794 5793 5786 5781 5778 5775 5771 5764 5758 5753 5748 5743 5739 5735 5732 5728 5725 5722 5719 5715 5712 5709 5707 5707 5704 5702 5699 5695 5691 5689 5686 5684 5682
5776 5743 5746 5771 5777 5776 5776 5768 5782 5788 5777 5784 5791 5787 5792 5795 5793 5786 5777 5773 5770 5768 5766 5760 5755 5752 5749 5743 5737 5732 5728 5724 5721 5717 5714 5711 5710 5707 5703 5701 5699 5698 5696 5693 5690 5687 5684 5682 5679
5753 5742 5757 5791 5782 5777 5775 5766 5770 5768 5772 5773 5779 5790 5793 5792 5786 5780 5777 5772 5770 5765 5764 5759 5752 5748 5747 5748 5742 5735 5730 5726 5722 5718 5714 5710 5708 5706 5704 5702 5698 5695 5693 5690 5688 5684 5681 5678 5678
5757 5742 5766 5774 5776 5776 5769 5766 5774 5762 5758 5772 5769 5781 5784 5782 5778 5776 5777 5780 5770 5771 5767 5760 5752 5746 5741 5745 5744 5734 5731 5725 5721 5719 5715 5711 5710 5709 5702 5698 5694 5692 5690 5687 5685 5683 5680 5678 5679
5744 5760 5762 5766 5772 5767 5761 5767 5761 5765 5768 5782 5779 5779 5775 5770 5769 5766 5766 5769 5770 5763 5766 5761 5756 5748 5740 5738 5740 5736 5731 5726 5722 5718 5714 5710 5706 5707 5703 5698 5691 5689 5689 5689 5688 5684 5681 5681 5681
5745 5754 5761 5765 5765 5763 5763 5755 5753 5757 5772 5778 5774 5766 5761 5758 5757 5758 5760 5763 5763 5759 5757 5763 5757 5750 5741 5734 5735 5735 5732 5730 5723 5718 5714 5709 5706 5704 5698 5697 5694 5691 5690 5687 5689 5690 5685 5683 5681
5749 5751 5755 5758 5758 5760 5750 5751 5754 5760 5769 5764 5760 5754 5751 5748 5748 5747 5749 5750 5754 5754 5755 5754 5757 5749 5741 5732 5728 5727 5728 5726 5724 5720 5716 5710 5706 5700 5695 5691 5689 5688 5687 5688 5689 5690 5688 5683 5679
5740 5729 5739 5743 5747 5748 5754 5740 5745 5764 5764 5756 5749 5747 5743 5743 5744 5738 5742 5743 5745 5748 5748 5747 5751 5747 5736 5728 5723 5721 5718 5717 5716 5716 5712 5706 5699 5696 5693 5690 5686 5684 5682 5684 5687 5688 5683 5681 5676
5718 5723 5709 5741 5749 5755 5745 5726 5758 5777 5760 5750 5747 5746 5738 5733 5732 5731 5733 5734 5735 5735 5735 5737 5735 5732 5725 5721 5713 5710 5708 5707 5707 5706 5705 5703 5698 5690 5687 5685 5684 5681 5679 5677 5682 5681 5678 5675 5673
5715 5702 5715 5734 5756 5749 5739 5727 5751 5763 5755 5746 5748 5740 5737 5727 5721 5721 5724 5724 5724 5725 5727 5726 5725 5721 5717 5714 5709 5703 5699 5697 5696 5696 5695 5693 5692 5689 5683 5679 5679 5677 5676 5675 5671 5673 5672 5667 5664
5700 5711 5724 5726 5737 5737 5729 5729 5741 5750 5745 5745 5744 5741 5729 5721 5715 5713 5714 5715 5714 5713 5714 5713 5713 5712 5712 5708 5703 5699 5692 5687 5686 5685 5683 5684 5681 5679 5677 5674 5672 5670 5668 5670 5670 5665 5665 5660 5658
5715 5718 5719 5736 5751 5726 5723 5727 5739 5747 5747 5745 5742 5726 5721 5715 5709 5705 5703 5704 5702 5702 5701 5700 5697 5697 5697 5695 5690 5689 5684 5684 5680 5676 5675 5672 5671 5672 5669 5668 5667 5663 5659 5660 5660 5656 5656 5653 5649
5709 5706 5710 5725 5737 5729 5724 5722 5737 5741 5744 5744 5740 5722 5714 5707 5700 5695 5691 5690 5688 5687 5688 5687 5684 5682 5679 5678 5677 5677 5673 5674 5671 5672 5669 5666 5663 5659 5657 5656 5655 5655 5653 5649 5649 5648 5646 5648 5644
5705 5706 5706 5704 5718 5722 5715 5709 5722 5736 5741 5736 5731 5720 5709 5697 5689 5683 5680 5678 5676 5673 5672 5672 5671 5670 5666 5661 5663 5661 5662 5664 5662 5660 5657 5657 5655 5652 5652 5650 5648 5645 5643 5642 5641 5640 5634 5633 5636
5690 5713 5703 5698 5690 5676 5709 5678 5723 5723 5718 5720 5713 5706 5698 5693 5686 5678 5672 5668 5665 5661 5660 5658 5657 5657 5655 5655 5651 5647 5646 5644 5646 5646 5649 5647 5645 5644 5641 5637 5634 5634 5634 5634 5633 5632 5627 5625 5621
5692 5705 5698 5695 5687 5682 5686 5680 5708 5720 5693 5696 5696 5695 5689 5682 5675 5667 5664 5661 5658 5650 5648 5646 5645 5643 5642 5640 5636 5633 5632 5632 5632 5632 5630 5632 5632 5630 5630 5629 5625 5623 5620 5617 5617 5622 5621 5619 5613
5701 5687 5686 5679 5670 5650 5680 5679 5695 5719 5699 5686 5684 5683 5677 5668 5663 5662 5659 5655 5646 5643 5638 5633 5632 5631 5630 5628 5626 5622 5619 5615 5612 5611 5610 5611 5614 5613 5614 5614 5610 5608 5607 5605 5602 5600 5602 5606 5601
5683 5664 5643 5642 5647 5653 5693 5684 5696 5711 5722 5690 5674 5665 5659 5653 5648 5646 5644 5640 5636 5633 5627 5623 5619 5615 5613 5610 5606 5604 5602 5599 5595 5593 5595 5597 5599 5597 5596 5592 5588 5586 5585 5582 5581 5578 5579 5579 5578
5674 5668 5649 5637 5656 5668 5687 5678 5677 5692 5694 5684 5670 5658 5649 5642 5637 5633 5626 5620 5619 5615 5611 5605 5600 5595 5591 5589 5587 5584 5581 5579 5580 5580 5580 5582 5581 5578 5576 5571 5569 5563 5561 5559 5557 5556 5553 5551 5551
5670 5655 5679 5656 5664 5649 5663 5662 5668 5672 5666 5663 5652 5644 5635 5629 5622 5616 5614 5611 5605 5599 5593 5588 5583 5579 5576 5572 5570 5568 5566 5564 5564 5565 5562 5561 5559 5553 5550 5548 5543 5539 5537 5534 5530 5528 5525 5523 5520
5671 5679 5645 5646 5623 5623 5655 5668 5669 5652 5645 5644 5637 5630 5621 5615 5607 5603 5602 5596 5590 5583 5577 5571 5566 5561 5556 5552 5551 5550 5546 5544 5544 5543 5539 5535 5532 5526 5520 5518 5518 5511 5508 5503 5498 5494 5494 5493 5491
5653 5649 5654 5656 5643 5634 5640 5657 5671 5652 5639 5628 5623 5615 5606 5599 5594 5590 5585 5579 5572 5567 5561 5553 5546 5543 5538 5533 5532 5527 5523 5520 5516 5514 5507 5501 5495 5488 5491 5489 5493 5483 5485 5486 5478 5469 5468 5466 5466
5662 5653 5650 5627 5629 5635 5632 5629 5652 5642 5631 5622 5611 5603 5594 5587 5582 5579 5572 5563 5556 5549 5541 5535 5527 5524 5522 5517 5512 5507 5502 5497 5492 5487 5486 5477 5473 5474 5469 5468 5467 5464 5470 5469 5462 5454 5449 5449 5450